Wind_Speed
11 13 15 17 18 19 21 23 26 27 29 31 31 33 34 35 35 36 37 37 37 37 36 36 35 34 34 34 34 34 35 36 38 39 39 41 43 45 47 50 51 53 55 56
10 12 14 16 17 19 21 22 25 26 28 28 29 30 30 31 31 32 32 33 33 33 32 32 32 32 31 31 31 32 33 35 36 37 39 40 43 45 46 48 50 52 53 55
8 11 13 15 16 18 20 21 23 24 26 26 27 28 28 28 28 28 29 29 29 28 28 28 28 28 29 29 29 31 32 34 35 37 38 40 42 43 45 47 48 50 51 53
8 10 12 14 15 17 18 20 21 22 24 25 25 25 26 26 26 25 25 25 25 25 25 25 26 26 27 29 30 31 32 33 35 37 38 40 41 42 44 45 47 49 50 51
9 10 11 12 14 16 17 18 19 20 20 20 21 22 23 22 21 22 22 22 22 23 23 24 25 26 27 28 29 31 32 34 35 36 38 39 40 42 44 45 46 47 48 49
10 11 12 13 14 15 16 16 16 17 18 19 19 20 20 20 19 19 20 20 20 22 23 24 24 26 27 28 28 30 31 33 34 36 37 38 39 41 42 43 44 45 45 45
11 12 13 13 14 14 14 14 15 15 16 16 16 16 17 17 17 18 18 19 20 20 21 22 23 24 25 27 28 30 31 32 33 34 35 36 37 39 40 41 41 41 40 40
13 13 13 14 14 13 14 14 14 14 14 14 14 15 15 15 15 16 17 18 18 19 20 21 22 24 25 27 28 28 29 29 30 31 32 34 35 36 36 36 35 34 33 33
14 13 14 14 14 14 14 14 13 13 13 13 13 13 14 14 15 15 15 16 17 18 18 20 21 23 24 25 25 25 25 26 27 28 30 31 32 31 31 30 28 27 26 25
14 14 15 15 14 14 14 13 12 11 11 11 11 11 12 13 12 13 13 14 15 16 17 19 20 21 21 22 22 22 23 24 25 26 26 26 26 25 25 24 23 22 21 19
15 15 15 15 15 14 13 12 12 11 10 9 9 9 9 10 10 11 12 13 14 16 17 18 19 19 19 19 19 20 21 21 22 22 23 23 22 21 21 20 19 18 16 15
16 16 16 15 14 13 13 12 11 10 9 8 8 8 9 9 10 12 13 14 15 16 17 17 16 16 16 17 18 18 18 19 19 19 20 20 19 18 18 17 16 15 14 12
16 17 16 15 14 14 13 12 10 9 8 8 8 8 9 10 11 12 13 14 14 15 14 14 15 15 16 16 15 15 16 16 17 17 17 17 16 16 15 15 14 13 13 11
17 17 16 16 15 14 13 12 10 9 8 8 8 9 10 10 11 12 13 13 13 13 13 14 14 14 14 14 13 14 14 15 15 15 15 15 14 14 13 13 13 13 12 12
17 17 16 16 15 14 13 11 10 9 9 9 9 10 11 12 13 13 13 13 13 13 14 14 14 14 14 13 12 12 13 13 13 13 13 13 13 13 13 12 12 12 12 12
17 17 16 16 15 13 12 11 10 10 9 9 10 11 12 12 13 13 14 14 14 14 14 14 14 14 13 12 12 11 11 12 11 12 12 12 11 11 12 12 12 12 13 13
17 17 16 16 14 13 12 11 10 10 10 10 11 12 12 13 14 14 14 14 15 15 15 14 14 13 13 12 11 11 10 10 10 10 10 10 10 11 11 11 12 13 13 14
16 16 16 15 14 13 12 11 9 9 10 10 11 12 13 14 14 15 15 15 15 16 15 15 14 13 12 11 11 10 9 9 9 9 9 9 10 10 10 11 11 12 12 13
16 16 15 15 14 12 11 10 9 9 10 10 11 13 14 15 16 16 17 16 16 17 16 15 14 12 11 10 10 9 9 8 8 8 8 8 9 9 10 10 10 11 11 11
15 15 15 14 13 12 11 10 9 9 9 10 11 13 14 16 17 17 18 17 17 17 17 15 14 12 11 10 10 10 9 9 9 9 9 9 9 9 9 9 10 10 10 10
15 15 14 13 12 11 10 9 9 8 8 9 11 12 14 15 16 18 18 18 18 18 18 16 15 13 12 11 10 10 10 10 10 10 9 9 9 9 9 9 9 9 9 9
14 14 13 13 12 11 10 8 8 7 8 9 10 11 13 15 16 17 18 19 19 19 19 18 17 15 14 12 11 11 11 11 10 10 9 9 9 9 9 9 9 9 9 9
13 13 12 12 11 10 9 8 7 6 7 8 9 10 12 14 16 17 18 18 19 19 19 19 18 17 16 15 13 12 12 12 11 11 10 10 9 9 9 9 9 10 10 10
12 12 11 11 10 9 8 7 6 5 6 6 8 9 11 12 14 16 17 17 17 18 18 19 19 18 17 16 15 14 13 13 12 12 11 11 10 10 10 10 10 11 11 11
12 11 11 10 9 9 8 6 5 4 4 5 6 8 9 11 13 14 15 16 16 17 17 18 18 18 18 17 16 15 15 14 14 13 12 12 11 11 11 11 12 12 12 12
11 11 10 9 9 8 7 6 5 4 3 3 5 6 8 9 11 12 13 14 15 16 16 17 17 17 17 17 17 16 16 15 15 15 14 14 13 13 13 13 13 13 13 13
12 11 10 9 9 8 7 6 5 4 4 3 3 5 6 7 9 10 11 12 13 14 15 16 16 16 16 16 16 16 17 17 16 16 16 15 15 15 14 14 14 14 14 14
Wind_Direction
243 243 245 250 255 258 259 260 261 263 264 265 267 268 269 272 273 275 277 279 281 284 283 284 284 283 281 281 281 280 279 280 281 283 284 284 283 283 284 284 284 285 286 286
259 260 260 262 266 266 265 265 265 268 270 270 271 272 272 274 276 277 279 280 281 283 284 284 283 281 280 281 281 281 281 283 284 286 287 286 285 285 286 286 287 287 287 287
281 277 274 273 273 272 271 270 270 270 271 272 274 275 276 277 279 279 278 280 280 282 283 282 282 281 282 282 281 284 284 285 287 288 288 288 288 287 287 288 288 288 289 289
300 293 287 285 279 279 279 278 278 277 274 274 275 276 278 279 281 282 283 285 284 282 281 282 282 284 284 285 286 288 288 288 288 289 290 291 291 291 291 292 292 292 291 291
310 304 299 295 291 288 287 284 283 282 280 278 279 280 280 277 276 278 279 281 281 281 281 281 284 286 286 288 290 291 291 291 292 293 294 295 295 295 295 295 295 295 294 293
321 315 311 308 304 299 295 291 288 285 282 281 283 280 279 278 278 278 276 276 276 277 279 282 285 286 288 290 291 293 294 294 295 296 298 299 300 300 299 298 298 297 297 296
331 325 322 319 314 309 304 301 297 293 289 287 282 277 276 278 278 280 280 279 278 281 285 285 287 288 290 292 294 296 297 298 299 301 302 303 304 304 303 302 301 301 300 300
341 336 331 328 324 319 314 309 304 300 296 291 285 282 281 281 281 281 281 283 285 287 288 289 290 291 293 294 297 299 301 302 304 306 307 308 308 308 308 307 307 307 307 307
348 344 339 336 331 325 321 318 313 309 303 297 292 288 286 288 289 289 290 291 293 293 294 296 297 298 299 300 302 304 306 307 309 311 313 314 315 315 315 315 315 316 317 317
353 349 345 342 337 331 327 324 321 316 312 307 302 300 300 299 299 298 299 300 300 301 303 303 303 303 304 305 306 307 309 312 315 318 320 322 324 325 325 326 326 328 330 332
355 352 348 345 341 337 332 326 324 324 321 317 313 311 311 310 309 309 309 308 306 307 307 307 307 307 308 309 310 312 315 318 321 325 328 329 330 332 333 336 337 339 343 346
356 354 352 349 347 344 341 338 334 331 330 328 327 325 323 322 320 319 317 315 313 312 312 311 312 314 315 316 317 319 323 326 328 331 335 338 341 343 344 346 350 355 359 2
358 357 356 355 352 348 347 346 345 343 342 339 337 336 334 331 329 328 327 325 322 321 321 321 321 322 322 321 322 325 329 332 334 337 341 344 348 351 355 360 5 11 16 22
359 357 357 356 354 352 352 352 353 352 349 349 350 349 346 343 340 339 338 337 335 332 329 327 325 325 324 324 323 325 330 334 338 342 347 351 355 359 3 8 15 22 29 37
358 358 358 358 357 356 355 356 358 358 357 358 357 355 353 350 347 346 346 345 343 340 337 334 332 330 327 324 323 325 330 336 341 346 352 358 3 9 15 21 27 33 41 48
357 358 359 359 359 359 358 360 3 3 3 1 1 360 358 356 356 354 351 349 347 345 342 338 335 333 331 328 326 327 331 337 344 352 359 6 12 18 25 32 39 46 53 60
354 356 357 359 360 360 360 2 6 7 6 6 5 4 3 2 0 358 356 354 352 348 345 342 338 337 337 335 333 333 336 341 347 356 5 13 21 28 35 42 50 56 62 65
352 354 356 359 0 0 2 4 6 8 10 10 9 9 7 5 4 4 3 1 358 356 353 350 347 344 344 344 345 345 349 355 0 7 15 23 29 35 41 49 55 60 64 66
349 352 355 358 360 0 2 4 6 8 11 12 12 12 11 10 9 9 7 4 2 359 358 358 359 359 1 3 5 7 10 14 17 23 27 33 39 43 47 51 56 61 63 64
346 350 353 357 359 359 0 3 5 8 12 14 14 14 14 15 15 14 11 9 7 6 8 10 12 14 15 17 19 23 27 31 34 36 40 44 46 47 50 53 57 60 62 61
342 347 350 354 356 357 359 1 5 8 11 14 16 16 16 18 19 18 16 15 15 17 18 20 21 23 24 26 29 33 37 38 40 42 44 47 48 49 51 54 56 58 58 57
337 342 346 350 353 354 357 -0 3 6 9 14 16 17 18 20 21 20 20 21 23 25 26 27 28 31 33 36 39 41 41 42 43 44 45 47 48 49 51 53 54 54 54 53
330 336 341 344 347 350 353 357 359 2 6 11 14 16 18 20 21 22 23 24 27 29 30 31 34 36 38 40 43 45 46 46 46 47 48 49 50 51 51 52 52 53 52 53
321 328 334 338 341 344 346 350 351 354 360 5 12 15 16 18 20 22 24 26 28 31 33 34 37 40 42 45 46 47 48 48 48 49 50 51 53 54 55 56 55 53 54 55
312 318 325 329 333 336 338 340 340 341 345 357 7 11 13 16 19 21 24 26 30 33 35 37 39 41 44 46 46 47 48 48 49 50 51 53 56 57 58 58 57 57 58 59
301 307 314 319 323 324 325 326 323 317 319 336 354 3 7 11 15 19 23 26 30 33 36 38 40 42 44 46 47 48 49 50 51 52 54 57 59 59 59 59 59 60 61 60
289 296 302 307 311 311 312 310 304 296 294 302 324 345 357 4 9 14 20 24 28 32 36 39 41 44 45 46 47 49 51 52 53 54 56 58 59 60 61 62 62 61 60 59
Height
5756 5757 5758 5759 5760 5761 5762 5761 5762 5762 5761 5762 5762 5761 5761 5761 5760 5760 5760 5759 5758 5758 5757 5756 5755 5754 5753 5751 5749 5747 5746 5744 5742 5739 5737 5734 5731 5728 5725 5722 5719 5715 5711 5708
5754 5755 5755 5756 5756 5756 5756 5756 5755 5755 5755 5755 5754 5754 5753 5753 5752 5752 5751 5751 5750 5749 5748 5747 5746 5744 5743 5741 5739 5738 5736 5734 5731 5729 5726 5723 5720 5716 5713 5709 5705 5701 5697 5693
5753 5752 5752 5752 5752 5751 5750 5750 5750 5749 5749 5748 5747 5746 5746 5745 5745 5744 5743 5742 5742 5741 5740 5738 5737 5735 5734 5732 5730 5729 5726 5724 5721 5718 5716 5713 5709 5705 5701 5697 5692 5688 5684 5679
5750 5750 5749 5751 5747 5746 5745 5744 5743 5742 5742 5741 5740 5739 5738 5738 5737 5736 5735 5734 5734 5733 5731 5730 5728 5727 5725 5724 5722 5720 5717 5715 5712 5709 5706 5702 5698 5694 5689 5685 5680 5675 5670 5665
5748 5747 5746 5745 5743 5742 5740 5739 5738 5736 5735 5734 5733 5733 5732 5731 5730 5730 5729 5728 5727 5726 5724 5723 5721 5719 5718 5716 5714 5711 5709 5706 5703 5700 5696 5692 5687 5683 5678 5673 5668 5662 5657 5652
5745 5744 5742 5742 5739 5737 5736 5734 5733 5731 5730 5729 5727 5727 5726 5725 5724 5723 5722 5721 5720 5719 5718 5716 5714 5713 5711 5708 5706 5704 5701 5698 5694 5691 5686 5682 5677 5673 5667 5662 5656 5650 5645 5639
5743 5741 5739 5738 5735 5733 5733 5731 5728 5726 5724 5723 5722 5722 5721 5719 5718 5718 5717 5716 5714 5713 5711 5710 5708 5706 5704 5702 5699 5696 5693 5690 5686 5682 5678 5673 5668 5663 5657 5651 5645 5639 5634 5628
5741 5739 5739 5734 5732 5730 5729 5725 5723 5721 5720 5719 5717 5716 5715 5714 5713 5712 5711 5710 5709 5707 5706 5704 5702 5700 5698 5695 5692 5689 5686 5682 5679 5674 5670 5665 5659 5653 5647 5641 5635 5630 5625 5619
5740 5739 5735 5731 5729 5727 5724 5722 5720 5718 5716 5715 5713 5712 5711 5710 5709 5708 5707 5705 5704 5702 5700 5698 5696 5694 5692 5689 5686 5683 5679 5676 5672 5667 5663 5657 5651 5646 5640 5634 5629 5623 5618 5613
5738 5735 5732 5729 5726 5724 5721 5719 5717 5715 5713 5712 5710 5709 5708 5707 5705 5704 5703 5701 5699 5698 5696 5694 5691 5689 5686 5683 5681 5677 5674 5670 5666 5662 5657 5651 5646 5640 5635 5629 5624 5619 5615 5610
5737 5734 5731 5728 5725 5722 5719 5717 5714 5713 5711 5709 5708 5707 5705 5704 5702 5701 5699 5698 5696 5694 5691 5689 5687 5684 5681 5678 5675 5672 5669 5665 5661 5657 5652 5647 5642 5637 5632 5627 5622 5618 5613 5609
5737 5733 5730 5727 5723 5720 5718 5715 5713 5711 5709 5708 5707 5705 5704 5702 5700 5698 5696 5694 5692 5690 5687 5685 5682 5679 5677 5674 5671 5668 5665 5661 5657 5653 5649 5644 5639 5635 5630 5626 5621 5617 5613 5610
5735 5732 5729 5725 5722 5719 5717 5714 5712 5710 5708 5707 5705 5704 5702 5700 5698 5696 5694 5691 5688 5686 5683 5681 5678 5675 5673 5670 5667 5665 5662 5658 5655 5651 5647 5642 5638 5634 5630 5626 5622 5618 5614 5611
5734 5731 5728 5724 5721 5718 5716 5713 5711 5709 5708 5706 5704 5703 5701 5699 5697 5694 5691 5688 5686 5683 5680 5678 5675 5672 5669 5667 5664 5662 5659 5656 5653 5649 5645 5641 5638 5634 5630 5627 5623 5620 5617 5614
5734 5731 5727 5724 5721 5718 5715 5713 5711 5709 5707 5706 5704 5702 5700 5698 5695 5692 5690 5687 5684 5681 5678 5675 5672 5669 5667 5664 5662 5659 5657 5654 5651 5648 5644 5641 5638 5634 5631 5628 5625 5622 5619 5617
5733 5730 5727 5723 5720 5717 5715 5713 5711 5709 5707 5705 5704 5702 5699 5697 5694 5691 5688 5685 5682 5679 5676 5673 5670 5667 5664 5661 5659 5657 5654 5652 5649 5647 5644 5641 5638 5635 5633 5630 5627 5625 5622 5621
5733 5730 5726 5723 5720 5717 5715 5713 5711 5709 5707 5705 5704 5701 5699 5696 5693 5690 5687 5684 5681 5678 5674 5671 5668 5664 5662 5659 5656 5654 5652 5650 5648 5646 5644 5641 5639 5637 5634 5632 5630 5628 5626 5624
5732 5729 5726 5723 5720 5717 5715 5713 5711 5709 5707 5706 5704 5701 5699 5696 5693 5690 5687 5683 5680 5676 5672 5669 5665 5662 5659 5657 5654 5652 5650 5649 5647 5646 5644 5642 5640 5639 5637 5635 5633 5631 5630 5628
5731 5729 5726 5722 5720 5717 5715 5713 5711 5709 5708 5706 5704 5702 5699 5696 5693 5690 5686 5683 5679 5675 5671 5667 5664 5661 5658 5656 5654 5652 5650 5648 5647 5646 5645 5643 5642 5641 5639 5638 5636 5635 5633 5632
5730 5728 5725 5722 5719 5717 5715 5713 5711 5710 5708 5707 5705 5702 5700 5697 5693 5690 5687 5683 5679 5675 5671 5667 5663 5661 5659 5657 5655 5653 5651 5649 5648 5647 5646 5645 5644 5643 5642 5640 5639 5637 5636 5635
5729 5727 5724 5721 5719 5717 5715 5713 5711 5710 5709 5707 5705 5703 5701 5698 5695 5691 5688 5684 5680 5676 5672 5668 5665 5662 5660 5658 5656 5654 5653 5651 5650 5649 5648 5647 5646 5645 5644 5643 5641 5640 5639 5638
5728 5725 5723 5721 5719 5717 5715 5713 5712 5711 5709 5708 5706 5704 5702 5699 5696 5693 5690 5686 5682 5678 5674 5670 5667 5664 5661 5659 5658 5657 5655 5654 5653 5652 5651 5650 5649 5648 5646 5645 5644 5643 5641 5640
5726 5724 5722 5720 5718 5716 5714 5713 5712 5711 5710 5708 5707 5705 5703 5701 5698 5695 5692 5689 5685 5681 5677 5674 5670 5667 5665 5663 5661 5659 5658 5657 5655 5654 5653 5652 5651 5650 5649 5647 5646 5645 5644 5643
5724 5722 5721 5719 5717 5715 5714 5712 5712 5711 5710 5709 5707 5706 5704 5702 5700 5697 5694 5691 5688 5684 5681 5678 5675 5672 5669 5667 5665 5663 5661 5660 5659 5657 5656 5655 5653 5652 5651 5650 5649 5648 5647 5646
5721 5720 5719 5717 5716 5714 5713 5712 5711 5710 5710 5709 5708 5707 5705 5703 5701 5699 5696 5694 5691 5688 5685 5682 5679 5676 5673 5671 5669 5667 5665 5664 5662 5660 5659 5658 5656 5655 5654 5653 5652 5651 5650 5649
5718 5717 5716 5715 5714 5713 5712 5711 5710 5710 5709 5709 5708 5707 5706 5704 5703 5701 5699 5696 5693 5691 5688 5685 5683 5680 5678 5676 5674 5671 5669 5668 5666 5664 5662 5661 5660 5659 5658 5657 5656 5655 5654 5653
5715 5714 5714 5713 5712 5711 5710 5709 5709 5709 5708 5708 5708 5707 5706 5705 5704 5702 5700 5698 5696 5694 5691 5689 5687 5684 5682 5680 5678 5676 5674 5672 5670 5668 5667 5665 5664 5663 5662 5660 5659 5658 5657 5656